www.pogodaiklimat.ru

Погода и климат >> Архив погоды >> Украина >> Сербка


ПОГОДА в Сербке

  • Прогноз погоды в Сербке
  • Монитор погоды в Сербке

АРХИВ ПОГОДЫ в Сербке

Время (UTC), дата Ветер
(напр.,м/с)
 
Видим.   Явления Облачность Т
(С)
Тd
(С)
f
(%)
Тe
(С)
Тes
(С)
Комфортность P
(гПа)
Po
(гПа)
Тmin
(С)
Tmax
(С)
R
(мм)
R24
(мм)
S
(см)
03 18.06 З 2 20 км ясно +18.9 +16.1 84 +21 +21 комфорт 1015.3 1006.7
06 18.06 СВ 1 20 км ясно +26.3 +14.1 47 +29 +38 жарко 1015.8 1007.4 +18.7
09 18.06 СВ 2 20 км ясно +29.8 +13.5 37 +31 +49 жарко 1015.4 1007.1
12 18.06 СЗ 4 20 км 4/4 1000 м
[Cu med, cong]
+31.6 +13.9 34 +33 +39 жарко 1014.2 1006.0
15 18.06 С 4 20 км 4/3 1000 м
[Cu med, cong Ci sp]
+31.8 +12.6 31 +32 +34 жарко 1012.8 1004.6
18 18.06 С 1 20 км 3/3 600 м
[Cu med, cong Ci sp]
+27.0 +14.7 47 +30 +30 душно 1013.4 1005.1 +32.2
21 18.06 З 3 10 км ясно +22.9 +18.4 76 +29 +29 очень
душно
1014.6 1006.2
00 19.06 З 2 10 км ясно +20.9 +18.1 84 +26 +26 душно 1014.3 1005.8
03 19.06 СЗ 2 20 км 3/1 1000 м
[Cu med, cong Ci sp]
+20.4 +17.6 84 +24 +25 комфорт 1014.5 1006.0
06 19.06 С 3 20 км ясно +26.2 +17.8 60 +31 +37 очень
душно
1014.5 1006.2 +19.4
12 19.06 С 5 20 км 5/4 1000 м
[Cu med, cong Ci fib]
+31.7 +15.2 37 +34 +39 душно 1012.7 1004.5
18 19.06 З 2 20 км 3/3 1000 м
[Cu med, cong Ci sp]
+27.8 +15.1 46 +30 +30 жарко 1011.9 1003.6 +32.5
21 19.06 З 2 10 км ясно +22.9 +15.5 63 +27 +27 душно 1012.8 1004.4
00 20.06 З 2 10 км ясно +22.2 +15.5 66 +26 +26 душно 1012.9 1004.4
03 20.06 З 1 20 км 3/0
[Ci sp]
+20.4 +15.6 74 +24 +25 комфорт 1012.7 1004.2
06 20.06 СЗ 3 20 км 6/0
[Ci sp]
+27.9 +19.0 58 +33 +39 очень
душно
1012.4 1004.0 +20.0
09 20.06 С 4 20 км 4/3 1000 м
[Cu med, cong Ci sp]
+31.2 +15.6 39 +34 +42 душно 1011.7 1003.5
12 20.06 С 4 20 км 6/5 600 м
[Cb calv Ci sp]
+33.8 +14.8 32 +35 +40 очень
жарко
1010.5 1002.4
15 20.06 СВ 5 20 км гроза без осадков 8/8 900 м
[Cb cap]
+30.1 +15.8 42 +33 +33 душно 1010.5 1002.3
18 20.06 З 1 20 км {гроза} 6/6 600 м
[Cb calv]
+26.1 +17.2 58 +30 +30 душно 1011.5 1003.2 +34.3
21 20.06 З 2 10 км ясно +22.9 +15.8 64 +27 +27 душно 1012.3 1003.9
00 21.06 СЗ 2 10 км 3/0
[Ci sp]
+22.2 +14.4 61 +25 +25 комфорт 1012.7 1004.2
03 21.06 СЗ 1 20 км 3/1 1000 м
[Cu med, cong Ac trans Ci sp]
+20.5 +14.4 68 +24 +25 комфорт 1013.4 1004.9
06 21.06 СВ 3 20 км 3/3 1000 м
[Cu med, cong]
+28.6 +16.5 48 +32 +37 душно 1013.9 1005.6 +20.1
09 21.06 СВ 4 20 км 3/1 1000 м
[Cu med, cong Ci sp]
+32.9 +11.4 27 +33 +43 жарко 1013.7 1005.5
12 21.06 СВ 3 20 км 3/3 1000 м
[Cu med, cong]
+33.5 +11.4 26 +33 +42 жарко 1013.0 1004.8
15 21.06 С 3 20 км 4/4 1000 м
[Cu med, cong]
+33.3 +10.0 24 +33 +35 жарко 1012.4 1004.2
18 21.06 З 1 20 км 4/3 1000 м
[Cu med, cong Ci sp]
+28.2 +11.7 36 +29 +29 жарко 1012.8 1004.5 +34.4
21 21.06 СЗ 1 10 км ясно +23.7 +10.7 44 +25 +25 комфорт 1014.0 1005.6
00 22.06 З 2 10 км ясно +21.3 +11.6 54 +23 +23 комфорт 1014.0 1005.5
03 22.06 З 2 20 км 4/4 600 м
[Sc]
+19.1 +12.9 67 +21 +21 комфорт 1014.4 1005.8
06 22.06 СЗ 2 20 км 6/5 600 м
[Sc Ci sp]
+24.9 +14.1 51 +27 +31 жарко 1014.8 1006.4 +17.9
09 22.06 С 2 20 км 6/6 600 м
[Cu Sc]
+34.4 +9.6 22 +33 +40 жарко 1014.5 1006.3
12 22.06 ЮВ 6 20 км гроза без осадков 8/4 600 м
[Cb cap Ac cuf Ci sp]
+31.6 +12.9 32 +32 +35 жарко 1014.1 1005.9
18 22.06 ЮЗ 4
{20}
20 км гроза без осадков {ливн. осадки} 8/8 800 м
[Cb calv]
+26.1 +14.6 49 +29 +29 жарко 1014.0 1005.6 +34.8 7
00 23.06 штиль 0 10 км {гроза} 3/0
[Ci sp]
+21.4 +18.6 84 +26 +26 душно 1015.4 1006.9
06 23.06 ЮЗ 1 20 км 9/3 1000 м
[Cu med, cong Ac As]
+25.3 +19.7 71 +31 +33 очень
душно
1015.2 1006.8 +18.9
12 23.06 С 2 20 км 9/3 1000 м
[Cu med, cong Ac As Ci sp]
+30.9 +13.2 34 +32 +38 жарко 1014.1 1005.9
18 23.06 СВ 1 20 км 6/4 600 м
[Cb calv Ci ing]
+27.0 +13.4 43 +29 +29 жарко 1013.3 1005.0 +32.7
00 24.06 З 1 10 км 6/0
[Ac trans]
+19.5 +15.8 79 +23 +23 комфорт 1014.6 1006.1
06 24.06 СЗ 5 20 км 4/0
[Ac trans Ci sp]
+27.0 +15.4 49 +30 +33 душно 1014.8 1006.5 +19.2
12 24.06 С 5 20 км 9/6 1000 м
[Cu med, cong Ac trans]
+27.8 +14.4 44 +30 +32 жарко 1016.6 1008.3
18 24.06 З 6 20 км 8/8 900 м
[Cb calv]
+26.0 +17.1 58 +30 +30 душно 1016.9 1008.5 +31.2
00 25.06 СЗ 4 10 км 4/4 600 м
[Cb calv]
+22.2 +18.2 78 +27 +27 душно 1017.3 1008.8

 

Местоположение метеостанции Сербка (Одесская область, Украина): широта 47.02 долгота 30.75 высота над уровнем моря 73 м.

В архиве по умолчанию представлена погода в Сербке за последнюю неделю. Архивные данные за месяц целиком и за предыдущие месяцы, начиная с января 2011 года, Вы можете получить, выбрав интересующий диапазон дат из раскрывающегося списка и нажав кнопку "Ввод!".


*Определитесь, кто Вы:
робот инопланетянин человек

Внимание! Время в таблицах - всемирное. Для получения местного времени необходимо прибавить поправку, которая равна 2 ч.

Смотрите также архив погоды в соседних городах и на ближайших метеорологических станциях:

Погода в Раздельной (Одесская область, Украина) (54 км)
Погода в Заставе (Одесская область, Украина) (62 км)
Погода в Одессе (Одесская область, Украина) (66 км)
Погода в Ильичевске (Одесская область, Украина) (69 км)
Погода в Затишье (Одесская область, Украина) (74 км)
Погода в Очакове (Николаевская область, Украина) (75 км)
Погода в Вознесенске (Николаевская область, Украина) (75 км)
Погода в Тирасполе (Молдова) (88 км)
Погода в Николаеве (Николаевская область, Украина) (91 км)
Погода в Белгород-Днестровском (Одесская область, Украина) (98 км)

Пояснения к столбцам:

Ветер - указаны скорость ветра в м/с - средняя за 10 мин, порывы в срок и между сроками (в фигурных скобках) и направление, откуда дует ветер: С - северный, СВ - северо-восточный, В - восточный, ЮВ - юго-восточный, Ю - южный, ЮЗ - юго-западный, З - западный, СЗ - северо-западный.
Видимость - горизонтальная дальность видимости в метрах или километрах. При видимости от 1 до 10 км при отсутствии осадков обычно наблюдается дымка, при ухудшении видимости до 1 км и менее - туман. В сухую погоду видимость может ухудшаться дымом, пылью или мглою.
Явления - указаны атмосферные явления, наблюдавшиеся в срок или в последний час перед сроком; фигурными скобками обозначены явления, наблюдавшиеся между сроками (за 1-3 часа до срока); квадратными скобками обозначены град или гололедные отложения с указанием их диаметра в мм.
Облачность - указаны через наклонную черту общая и нижняя облачность в баллах и высота нижней границы облаков в метрах; квадратными скобками обозначены формы облаков: Ci - перистые, Cs - перисто-слоистые, Cc - перисто-кучевые, Ac - высококучевые, As - высокослоистые, Sc - слоисто-кучевые, Ns - слоисто-дождевые, Cu - кучевые, Cb - кучево-дождевые. Подробнее классификацию облаков см. в Атласе облаков (PDF).
T - Температура воздуха - температура, измеренная на высоте 2 м над землей.
Td - Температура точки росы - температура, при понижении до которой содержащийся в воздухе водяной пар достигнет насыщения.
f - Относительная влажность воздуха - влажноcть воздуха, измеренная на высоте 2 м над землей.
Te - Эффективная температура - температура, которую ощущает одетый по сезону человек в тени. Характеристика душности погоды. При расчете учитывается влияние влажности воздуха и скорости ветра на теплоощущения человека.
Tes - Эффективная температура на солнце - температура, которую ощущает человек, с поправкой на солнечный нагрев. Характеристика знойности погоды. Зависит от высоты солнца над горизонтом, облачности и скорости ветра. Ночью, в пасмурную погоду, а также при ветре 12 м/с и более поправка равна нулю.
P - Атмосферное давление - приведенное к уровню моря атмосферное давление.
Po - Атмосферное давление - измеренное на уровне метеостанции атмосферное давление.
Tmin - Минимальная температура - минимум температуры воздуха на высоте 2 м над землей.
Tmax - Максимальная температура - максимум температуры воздуха на высоте 2 м над землей.
R - Количество осадков - Количество выпавших осадков за период времени, мм. При наведении курсора мыши на число - период времени, за который выпало указанное количество осадков.
R24 - Количество осадков - Количество выпавших осадков за 24 часа, мм.
S - Снежный покров - Высота снежного покрова, см. При наведении курсора мыши на число - состояние снежного покрова и степень покрытия местности в баллах.